User: anonymous   Login
Location: Guferjoch
(46.7462°N, 8.4506°E)
Time: 13:00:34
(UTC+00:00)
Language:

SL-16 R/B - Orbit

View from above orbital plane
View from above orbital plane
View from above satellite
View from above satellite

Ground track
Ground track

The orbit data is extracted from the following two-line orbital elements,

1 27006U 01056F   20271.92197938 -.00000048 +00000-0 -40696-5 0  9991
2 27006 099.4882 041.9355 0015421 076.5606 029.5809 13.70964618940660
Epoch (UTC): 27 September 2020 22:07:39
Eccentricity: 0.0015421
inclination: 99.4882°
perigee height: 985 km
apogee height: 1007 km
right ascension of ascending node: 41.9355°
argument of perigee: 76.5606°
revolutions per day: 13.70964618
mean anomaly at epoch: 29.5809°
orbit number at epoch: 94066

The dashed part of the orbit path shows where the satellite is in the earth's shadow,  

DLR